Terminal Aerodrome Forecast
Issued by NWS

Home | Current Version | Previous Version | Text Only | Print | Product List | Glossary On
Versions: 1 2 3 4 5 6 7 8 9 10 11 12 13 14
000
FTUS46 KSGX 260500
TAFONT
TAF
KONT 260536Z 2606/2712 VRB04KT P6SM SKC
     FM261100 VRB04KT P6SM SKC WS020/03020KT
     FM262100 VRB04KT P6SM SKC=

USA.gov is the U.S. government's official web portal to all federal, state and local government web resources and services.